TURKMENALEM52E/MONACOSAT

Last updated on Thu Oct 30 2025 00:02:50 GMT+0000 (Coordinated Universal Time)

1 40617U 15023A 25302.48139110 .00000000 00000+0 00000+0 0 9996 2 40617 0.0142 241.6950 0002790 336.8153 44.8884 1.00273032 38534
UTC large
Height (km)
Speed (km/s)
/
Latitude / Longitude
Inclination (degrees)
Orbital Period (minutes)
Azimuth
Elevation
Range (km)
Doppler Factor

Next 0 passes for location: London (51.5072 / 0.1276)

Sorry there are no passes over London.